Theta_e
320 319 319 318 318 318 315 311 310 309 309 311 314 316 320 324 326 325 323 323 323 320 321 324 324 322 320 320 320 319 318 318 318 319 319 319 319 319 321 320 320 321 321 320 321 321 319 319 320 319 320 321 320 320 321 321 321 322 322 323 324 324 324 323 322 324 325 325 326 327 325 325 324 322 324 324 323 324 320 319 322 317 318 320 314 324 341
321 320 319 319 318 318 317 312 309 309 308 309 312 316 321 326 326 325 323 323 323 320 321 323 323 322 322 321 320 319 318 318 318 318 319 318 318 318 320 321 320 320 321 320 321 321 319 319 321 321 321 320 320 321 320 320 321 322 323 324 323 323 325 325 322 323 324 323 324 324 323 322 323 323 324 324 323 325 323 323 323 318 318 319 316 327 343
321 321 320 319 318 318 318 313 310 309 307 308 311 315 321 325 326 326 324 321 321 321 322 323 322 322 322 320 320 319 318 318 318 318 318 318 318 317 319 320 320 319 320 320 321 321 320 320 321 321 321 320 320 321 320 320 321 322 323 324 322 323 325 326 324 324 326 324 321 322 323 321 322 323 324 324 324 323 321 320 318 317 319 318 323 335 346
319 322 320 320 319 319 318 314 310 308 308 309 310 314 320 325 325 324 323 321 320 320 321 321 321 322 321 320 320 318 318 319 319 317 318 318 318 318 318 319 319 319 320 320 321 322 321 320 322 322 321 321 321 320 320 321 321 321 321 321 322 323 325 326 326 326 327 325 324 327 326 322 321 321 323 325 324 324 323 319 317 319 319 321 332 344 346
315 321 321 320 320 319 318 316 312 309 308 309 311 315 320 323 323 324 324 323 321 320 320 320 320 320 320 320 320 319 318 320 319 317 318 319 318 318 318 318 318 318 320 321 321 322 323 321 322 322 322 322 323 322 321 321 320 320 320 321 322 322 322 325 327 326 327 328 327 328 327 324 323 322 324 327 325 323 322 317 320 323 319 323 339 348 342
311 317 321 321 320 319 319 317 313 310 308 309 316 322 324 323 323 325 323 323 323 320 320 322 321 320 319 319 320 319 319 319 319 318 319 319 318 317 318 319 319 318 319 320 320 322 323 321 321 322 322 322 322 322 322 321 321 320 321 323 322 321 322 325 326 325 326 327 327 327 325 325 326 326 329 333 333 330 323 318 323 327 320 324 340 344 340
308 313 319 321 321 320 319 318 315 311 308 312 321 327 329 326 326 327 326 325 324 322 322 322 321 320 320 321 319 319 319 318 319 320 319 319 320 318 317 319 320 319 320 320 320 321 322 321 321 323 323 322 322 322 322 322 323 321 321 322 322 322 323 326 326 324 325 327 327 327 326 327 330 331 331 332 332 333 331 324 323 328 327 332 344 344 342
308 310 316 321 321 320 320 319 316 310 308 316 326 330 328 327 328 329 328 327 325 323 323 322 321 321 320 320 319 319 319 319 320 320 318 318 321 319 317 319 320 318 319 319 319 321 322 322 322 322 322 322 322 322 322 322 323 322 321 322 322 322 323 327 325 323 324 326 326 326 327 328 330 331 331 331 331 334 337 335 333 336 338 339 343 344 344
309 308 312 319 322 320 320 320 316 311 308 315 324 330 327 324 326 328 327 327 325 323 323 322 321 320 320 319 320 319 319 319 320 320 319 318 320 320 318 320 320 318 319 319 320 321 321 321 322 322 322 322 321 322 323 322 322 323 322 322 322 323 325 327 326 323 324 326 325 327 328 328 329 329 329 331 333 335 338 339 339 340 340 339 340 343 345
310 308 309 315 321 321 320 320 317 312 309 309 315 326 330 325 325 329 328 326 326 324 323 323 320 320 321 320 320 320 319 320 320 320 321 320 319 319 319 319 319 319 320 321 320 320 319 318 320 321 320 321 322 322 322 322 321 322 322 322 322 322 323 325 325 323 323 325 325 326 327 328 329 328 328 332 335 336 338 339 338 339 341 341 341 341 344
311 308 308 311 319 322 320 320 317 312 310 309 307 319 330 327 324 330 331 326 326 324 322 322 320 320 321 321 321 320 319 321 321 319 321 322 319 318 318 317 318 319 322 322 320 318 317 317 318 319 319 320 321 321 322 322 322 322 321 321 322 322 322 323 324 323 322 325 326 325 325 329 331 330 327 333 336 336 338 338 337 338 341 342 342 343 344
313 309 308 309 316 321 321 321 318 312 310 309 306 314 327 328 325 329 332 327 326 325 323 322 322 321 321 321 321 321 320 320 321 319 319 321 320 318 318 317 317 319 322 321 318 317 318 317 317 318 319 320 322 322 322 322 322 322 322 321 321 322 322 322 324 324 324 325 326 325 326 329 332 329 325 331 335 336 336 337 338 340 341 341 343 344 344
314 310 308 308 313 319 321 321 320 315 310 309 309 309 317 325 326 327 331 330 327 326 324 324 323 321 321 321 320 321 321 320 320 319 319 320 321 318 318 318 318 319 319 318 318 318 319 319 319 319 320 321 322 322 322 322 322 321 321 321 321 321 321 323 324 326 325 323 324 327 329 330 330 329 327 328 330 332 335 337 339 340 340 341 342 340 340
316 311 309 308 310 317 322 321 321 319 312 309 311 307 312 325 328 324 327 331 330 328 326 324 325 322 320 322 321 320 321 320 320 320 319 320 320 319 319 318 317 317 317 317 319 319 320 322 321 319 321 321 320 322 322 321 322 321 320 320 321 321 321 322 324 326 326 325 325 328 329 329 331 331 329 328 326 329 335 337 337 338 339 339 338 337 337
317 312 309 309 309 314 320 321 321 321 316 311 310 307 313 325 325 320 325 331 330 329 327 324 325 324 321 322 321 320 321 321 320 320 320 319 319 319 319 317 317 317 316 317 320 320 321 322 319 319 323 323 320 321 323 322 321 322 320 319 320 321 321 322 323 325 327 327 326 326 327 329 332 332 329 327 326 327 333 336 336 337 339 338 337 337 337
319 313 310 309 308 311 317 321 322 321 319 315 310 307 317 325 321 315 320 327 328 329 328 324 323 323 321 322 321 320 321 321 321 321 320 320 319 319 319 317 317 317 317 319 322 322 321 321 319 320 324 324 321 320 322 320 319 321 321 320 319 321 322 323 322 322 325 326 326 327 328 330 332 331 329 326 327 326 326 331 333 336 338 337 336 336 337
320 314 311 309 309 309 313 319 322 321 320 318 312 309 315 320 314 310 316 324 329 330 327 324 324 323 321 321 320 320 320 321 322 322 321 322 322 320 318 317 316 317 318 320 322 322 322 321 319 319 322 324 321 318 319 318 317 319 322 322 321 321 322 321 319 318 324 329 329 329 330 330 330 330 329 328 329 326 324 327 330 334 336 338 337 336 336
320 314 311 309 309 309 310 315 321 321 321 320 315 310 311 312 310 309 314 322 328 329 325 323 322 321 323 322 321 321 320 321 322 321 321 324 323 321 319 317 317 318 319 321 323 322 321 321 320 319 322 324 321 317 318 318 318 320 321 320 321 322 321 321 318 317 322 328 327 327 329 329 328 328 329 330 330 327 325 328 331 334 336 338 337 336 336
321 315 311 310 309 310 310 312 318 321 321 320 316 313 314 316 312 309 312 319 325 327 325 325 323 321 322 322 321 321 321 321 322 322 322 324 324 322 320 319 319 319 318 320 323 323 322 324 325 322 321 323 322 320 320 320 320 322 321 320 320 321 320 319 319 318 321 325 325 326 329 329 327 328 330 331 331 329 328 331 334 335 335 337 336 336 336
321 316 311 310 310 311 311 311 316 320 322 321 318 314 315 315 311 308 311 318 323 325 323 323 323 321 321 321 321 321 321 321 322 322 322 324 324 322 320 319 319 321 321 319 322 323 323 326 328 325 321 323 325 322 320 321 322 322 322 322 322 321 321 320 320 321 322 324 327 329 329 330 329 329 331 333 332 331 332 334 336 336 337 337 336 336 336
321 317 312 310 310 311 311 312 315 319 321 322 319 314 313 316 316 314 313 314 317 321 322 322 323 322 321 321 320 321 322 321 321 322 323 324 325 323 322 322 320 321 323 322 322 324 324 325 326 326 323 323 323 322 322 322 321 321 322 323 323 322 323 323 322 324 323 324 327 330 329 329 330 330 331 333 333 332 333 334 336 336 337 336 335 336 335
321 317 312 310 310 311 312 312 314 318 321 322 320 314 314 320 324 322 316 311 312 315 317 318 320 322 322 322 321 322 323 323 322 322 322 324 325 323 323 325 324 323 325 325 324 325 324 324 325 324 325 326 324 324 325 322 320 321 323 322 323 324 325 325 324 325 326 326 327 328 327 327 329 329 330 330 331 331 332 333 334 335 336 336 336 336 335
321 316 311 310 310 311 312 312 314 317 320 322 321 316 314 319 324 320 313 310 311 314 314 316 320 322 321 322 322 322 323 323 322 322 321 322 324 323 322 324 325 325 324 324 326 326 325 324 324 324 328 331 329 325 325 323 322 324 324 323 323 323 322 324 325 325 326 326 326 327 327 326 327 327 327 328 328 329 331 333 334 333 334 336 337 336 334
320 315 311 310 310 310 311 312 313 317 319 321 322 319 314 315 317 315 313 316 319 320 318 317 319 321 321 321 321 321 321 321 321 321 321 321 321 322 322 323 324 325 325 324 325 326 325 325 325 323 326 329 327 324 325 325 325 326 325 324 324 321 319 323 325 323 324 326 326 327 327 326 326 327 327 327 327 327 329 332 333 333 333 333 334 334 333
318 313 310 309 309 310 311 312 313 316 318 319 320 321 317 313 313 314 318 321 323 323 322 320 319 320 321 320 319 320 320 320 320 321 320 319 319 320 322 324 323 324 326 326 324 323 323 323 324 322 323 324 323 324 325 325 326 326 324 324 325 322 320 323 325 324 325 326 326 326 326 326 327 327 327 327 327 327 328 329 330 331 331 331 331 332 332
315 311 309 309 309 310 311 312 312 315 318 318 318 319 319 316 313 313 316 320 323 324 323 323 321 319 319 320 319 319 320 320 320 320 319 318 319 319 320 323 324 324 325 325 323 322 322 323 323 323 323 324 323 323 325 325 325 324 323 324 324 322 321 324 325 325 326 326 325 325 325 325 326 326 326 327 326 326 326 327 328 328 329 329 330 329 331
312 310 309 309 309 310 310 312 312 314 317 318 317 318 319 317 314 311 314 321 326 326 322 321 322 320 319 320 321 320 320 320 320 320 320 319 318 318 318 321 323 323 323 322 322 322 322 323 324 322 323 324 323 322 323 325 325 323 323 324 324 323 325 326 324 324 326 327 326 326 328 328 327 326 326 326 326 326 326 326 326 327 327 328 329 329 330
310 309 309 309 310 310 310 311 313 314 317 318 317 317 319 319 314 310 311 316 322 326 325 324 324 323 321 321 321 321 320 321 321 320 320 319 318 319 319 320 322 322 322 321 322 322 322 322 322 322 324 324 322 321 322 323 321 322 323 325 325 325 327 327 325 325 327 329 327 327 329 330 328 326 326 326 326 326 327 326 326 326 326 327 328 328 329
310 309 310 310 311 310 310 311 313 315 317 318 318 318 319 319 314 310 310 312 316 321 324 322 320 322 322 321 321 320 320 321 321 319 319 320 319 319 321 322 322 322 321 321 322 323 323 322 322 323 325 324 321 321 322 322 321 323 325 327 326 327 327 327 326 327 328 328 326 326 328 329 327 326 326 326 326 326 327 326 326 325 325 326 326 326 327
310 310 311 312 312 312 311 312 314 315 317 318 318 317 318 318 316 311 311 313 315 319 323 322 321 322 322 319 319 320 320 320 320 319 319 320 320 320 321 322 322 322 322 323 323 323 323 323 323 325 326 324 322 322 322 323 325 326 327 327 326 326 327 326 326 328 327 327 327 327 327 327 327 326 326 326 326 326 327 327 325 324 324 325 326 326 326
310 310 311 311 312 312 312 313 314 315 317 319 318 317 318 322 321 316 312 311 312 317 322 324 322 321 320 320 320 320 320 320 320 319 319 320 320 321 321 322 322 322 323 324 323 322 324 324 324 326 326 323 322 321 321 323 326 327 327 326 326 326 326 326 327 328 328 326 326 326 326 326 326 326 326 326 325 325 326 327 326 324 323 324 325 326 326
310 311 311 311 311 311 312 313 314 316 318 319 318 318 321 323 323 321 316 311 310 316 321 321 319 319 320 320 320 320 320 320 320 319 319 319 320 321 321 322 322 322 322 323 324 324 324 324 325 327 326 323 321 320 319 322 326 328 327 326 326 327 326 326 326 326 326 326 325 325 325 326 326 326 327 326 326 325 324 325 324 323 323 323 324 324 326
311 312 312 311 311 311 312 314 315 317 319 320 318 318 320 321 321 320 318 312 311 317 321 321 319 319 319 319 320 320 321 320 320 319 319 319 320 322 322 321 323 323 322 323 325 324 323 324 325 326 327 325 323 321 321 324 327 328 327 327 327 327 326 326 326 326 326 325 325 325 327 327 327 326 326 326 325 324 322 322 322 321 322 322 322 323 324
311 311 311 311 311 311 312 314 316 318 320 320 318 317 318 318 317 316 314 312 313 318 321 322 321 320 319 320 321 320 320 320 320 320 319 320 321 323 323 322 323 324 323 322 323 324 324 324 325 326 327 327 325 323 325 327 328 327 327 327 327 327 326 326 326 326 326 325 324 326 328 328 326 325 324 324 324 323 321 320 320 320 320 320 321 322 323
311 310 310 310 311 311 313 316 318 319 319 319 318 317 317 316 316 315 313 313 317 320 320 319 320 320 320 321 321 320 319 320 321 319 320 321 322 322 323 324 323 323 323 322 322 324 326 325 324 325 327 327 326 325 326 328 328 327 326 327 327 326 327 326 326 326 326 325 324 325 326 325 324 324 323 323 323 322 320 319 319 318 318 318 318 319 320
310 309 309 310 311 312 314 317 319 320 319 317 318 319 318 316 315 316 315 314 317 321 321 318 317 318 319 320 322 321 320 320 321 321 321 323 324 322 323 325 325 324 324 324 323 324 325 324 324 325 326 327 328 328 328 329 328 327 326 327 326 326 326 326 326 326 325 324 324 325 324 323 323 324 323 323 322 321 319 318 318 318 318 318 318 317 317
309 309 310 311 311 313 316 318 320 319 318 317 318 319 317 314 315 317 318 317 317 319 321 321 319 317 317 318 321 322 320 319 321 321 321 323 325 324 323 324 325 325 325 325 325 324 324 325 325 325 326 327 328 327 326 327 327 328 327 327 327 326 326 326 326 326 325 324 324 324 323 322 322 323 322 321 320 320 319 319 319 319 318 318 317 317 317
310 310 311 312 314 316 319 320 320 319 318 318 318 316 313 313 316 319 318 319 319 319 319 320 321 320 319 318 320 322 322 320 320 322 323 324 326 325 324 324 325 324 324 325 325 324 325 327 326 325 326 329 328 325 324 325 327 327 327 327 327 326 326 326 325 325 325 324 324 323 322 322 322 322 321 320 320 320 320 320 319 319 318 318 318 317 317
311 312 313 314 316 319 320 320 319 318 317 316 317 316 314 314 318 319 318 317 319 320 319 319 320 320 320 320 320 322 322 322 322 324 325 325 325 325 325 325 325 324 324 325 326 324 324 327 327 325 326 330 330 327 326 326 326 326 326 326 326 326 326 325 325 324 324 324 324 323 322 322 321 321 321 320 320 320 319 318 318 317 317 317 317 316 317
312 313 315 316 318 320 320 319 318 318 316 315 317 319 318 316 317 320 318 316 317 318 318 318 318 318 318 319 320 321 322 323 323 324 325 325 325 325 326 326 325 324 324 325 326 324 324 326 327 326 327 330 330 329 327 326 326 326 326 326 326 326 326 325 324 323 324 324 324 323 323 322 321 320 320 319 319 318 317 317 317 316 316 315 315 315 315
313 315 316 318 319 320 319 318 317 317 318 317 318 318 319 318 318 319 319 318 317 318 317 317 317 317 317 318 319 320 321 322 322 322 324 326 325 324 324 325 325 324 324 325 325 325 324 324 325 327 327 329 329 329 328 327 327 327 327 327 327 326 325 325 324 324 324 324 323 323 322 321 320 320 319 318 318 317 316 316 316 315 315 315 315 315 315
314 316 318 319 319 318 317 317 318 319 319 318 317 318 319 319 319 319 319 320 320 319 318 317 316 316 317 317 318 319 320 321 321 321 323 325 324 322 323 326 325 324 325 325 325 324 325 325 324 326 328 329 329 329 328 328 328 328 328 327 327 326 325 325 324 324 324 323 323 323 322 320 319 319 318 317 316 315 315 315 315 315 315 315 315 315 315
315 317 318 318 318 318 317 317 319 319 318 317 317 318 318 319 319 319 320 321 320 320 319 318 316 317 317 316 317 320 321 321 321 321 323 324 323 322 323 325 325 325 324 325 324 325 325 324 324 325 328 329 329 328 327 328 328 328 328 327 327 325 324 324 324 323 323 323 322 321 319 318 317 317 316 315 315 315 315 316 316 316 316 316 316 315 315
316 317 318 318 318 318 318 317 318 318 318 317 318 319 319 319 319 319 320 320 320 319 319 318 317 317 317 316 317 321 322 321 321 321 322 324 324 323 323 323 324 325 324 324 324 325 324 324 324 326 328 328 327 326 327 328 328 328 327 327 326 325 324 323 323 322 321 320 319 318 317 316 316 316 315 315 316 316 316 316 316 315 315 315 315 315 315
316 317 318 318 317 317 318 318 317 318 318 318 318 318 319 318 318 319 320 320 319 319 320 320 318 318 317 316 317 321 323 322 321 321 323 324 324 324 323 323 323 324 324 324 324 324 324 324 326 328 327 327 327 327 327 327 327 327 327 326 325 324 323 323 323 322 320 319 318 317 317 316 316 316 316 316 315 315 314 314 314 313 313 313 313 313 313
316 317 318 318 317 317 318 318 317 318 318 319 318 319 319 319 318 318 319 319 319 319 320 321 319 318 318 317 317 319 321 322 320 321 322 324 324 324 324 324 324 324 325 325 325 324 323 324 327 328 327 327 327 327 327 326 326 326 326 325 324 324 323 322 322 321 320 319 318 317 316 316 316 316 315 315 314 314 313 313 312 312 312 312 312 312 312
316 317 318 318 318 317 317 317 318 319 319 319 319 319 319 319 318 318 318 318 319 320 320 320 319 319 318 317 317 318 321 322 322 321 322 324 324 323 324 325 325 324 325 326 325 324 323 325 327 327 326 326 326 326 326 325 324 325 325 325 324 323 323 322 321 320 319 318 317 316 315 315 315 315 314 313 313 312 312 312 312 312 311 311 311 311 312
317 317 317 317 318 318 317 317 318 318 318 319 319 319 319 319 318 319 320 320 319 320 321 321 319 319 319 318 318 320 322 323 323 323 323 324 324 323 324 324 324 324 324 325 324 322 323 326 328 327 326 326 326 326 325 325 324 325 325 325 323 323 322 321 320 318 317 316 315 315 315 314 314 313 313 312 312 312 311 311 311 311 311 311 311 311 311
316 317 317 318 318 319 319 318 318 318 319 319 319 319 320 320 319 319 321 321 319 320 323 324 323 322 323 323 322 323 324 324 323 323 324 324 323 324 324 324 324 324 324 323 323 323 324 326 327 326 326 326 326 326 325 325 325 325 325 324 323 322 321 320 319 317 316 315 314 314 314 313 312 312 311 311 311 311 311 311 311 312 312 312 312 311 311
316 317 318 318 319 319 319 319 318 318 319 320 320 320 321 321 320 321 322 322 320 320 323 325 324 324 325 324 322 323 324 324 323 323 323 323 323 324 324 324 324 324 323 323 323 325 325 325 325 325 325 325 325 324 324 324 324 324 323 322 322 321 320 319 317 316 315 314 314 313 313 312 311 311 311 311 311 311 311 312 312 312 312 312 311 311 311
315 316 318 319 319 319 320 319 319 319 320 320 320 321 321 321 321 321 322 323 323 322 324 325 325 324 324 323 322 322 324 325 325 324 324 323 323 323 324 324 324 323 323 322 323 323 323 323 324 324 324 324 324 324 323 323 323 322 321 321 320 319 318 317 316 315 314 313 313 312 312 311 311 311 311 311 311 311 312 312 312 311 311 311 310 311 311
315 317 318 318 319 320 320 320 320 320 320 319 319 319 320 321 321 321 322 322 323 324 323 322 323 323 322 322 323 323 323 324 325 325 324 324 324 324 324 325 325 323 321 321 321 322 322 322 323 324 325 325 324 324 323 323 322 321 320 319 319 318 317 316 315 314 313 312 312 311 311 311 311 311 310 311 311 311 311 311 311 311 310 310 310 310 309
Wind_Speed
14 15 16 18 19 20 21 21 22 20 13 8 9 11 11 12 7 7 12 8 7 9 8 7 11 5 5 2 0 3 2 6 3 4 3 3 2 3 4 3 2 3 2 4 5 3 3 5 4 1 2 1 4 3 4 8 6 4 3 2 5 4 2 2 6 7 9 15 17 12 15 15 12 11 11 9 8 7 8 7 5 6 6 7 7 3 2
13 14 15 16 18 19 20 21 21 20 18 14 13 12 11 15 13 6 9 6 8 10 8 5 7 4 2 2 2 1 4 5 4 7 6 4 4 5 4 2 3 3 3 6 6 1 2 5 5 4 1 3 3 1 3 6 5 4 5 4 5 3 1 1 4 7 6 8 11 8 10 11 9 10 13 13 13 15 13 9 6 6 7 7 6 2 4
13 13 13 14 16 17 18 19 20 20 18 16 16 15 12 16 14 7 8 5 8 11 10 7 9 7 2 3 5 5 5 4 3 7 6 4 6 6 4 3 4 6 4 6 6 3 2 3 4 5 2 2 1 0 3 6 4 8 8 7 7 4 1 1 2 4 5 5 5 5 4 6 8 10 12 13 15 17 15 8 6 5 7 10 4 5 7
13 13 12 13 14 16 16 17 18 19 18 15 14 13 11 11 9 6 8 8 9 12 12 11 11 7 1 2 3 4 5 5 3 5 5 2 5 7 6 4 4 4 5 6 6 5 3 1 2 4 4 5 3 0 5 8 4 9 7 5 5 6 2 2 3 3 6 8 9 12 11 10 8 10 11 12 15 16 13 8 7 6 6 5 3 10 11
14 12 12 12 13 15 16 15 16 17 17 15 14 11 11 8 7 7 4 5 7 11 13 13 9 5 4 1 3 4 6 2 5 5 3 2 5 7 4 4 5 3 5 6 6 7 6 5 6 6 4 3 6 4 8 8 6 6 6 6 3 6 3 3 5 6 9 11 14 15 13 13 11 7 11 13 13 17 15 11 10 9 6 2 6 9 11
15 13 12 12 12 13 15 15 14 14 13 13 12 10 10 8 9 10 7 3 6 6 7 9 8 5 4 1 2 4 6 4 4 6 1 2 4 4 2 4 5 5 4 5 4 5 6 4 5 7 4 3 6 7 8 9 4 2 8 5 3 5 4 2 5 7 10 12 14 14 11 12 12 9 12 18 13 11 13 14 14 12 7 3 10 12 10
15 14 12 11 11 12 14 15 14 13 10 7 9 10 9 9 11 12 10 8 8 4 5 6 7 7 4 1 2 3 6 8 5 1 2 4 1 3 6 5 4 6 6 4 3 4 5 2 3 5 7 5 5 5 4 8 8 7 7 3 1 2 3 4 6 8 10 12 12 13 11 7 7 12 16 21 23 22 18 16 13 8 8 4 14 18 13
15 15 13 11 11 11 13 14 14 13 8 3 7 10 10 9 11 13 15 14 11 10 7 6 7 4 2 1 4 3 6 9 4 1 4 6 3 2 8 6 4 5 5 3 4 3 4 1 2 2 6 5 4 3 3 6 6 5 6 4 1 1 1 4 7 6 7 10 13 11 7 4 8 14 18 19 21 22 20 14 7 10 12 8 12 16 12
14 15 13 12 11 11 12 12 13 13 9 5 7 9 10 12 11 12 13 10 8 11 9 6 6 3 3 4 4 4 7 6 3 1 2 6 7 5 6 7 4 4 4 4 5 4 3 3 3 6 7 4 2 2 3 6 6 4 4 3 1 2 1 2 5 5 4 8 13 10 4 3 6 11 15 16 15 14 14 14 13 13 12 10 9 9 6
14 14 13 12 11 10 11 11 11 12 9 7 8 8 13 15 12 11 11 8 6 9 8 7 7 5 5 6 5 5 8 3 2 1 1 6 10 7 7 7 4 4 3 2 4 5 6 8 6 5 6 5 6 5 5 7 5 3 4 3 3 4 2 1 2 3 4 5 9 10 4 2 3 6 6 7 8 8 10 10 14 14 11 8 6 4 2
13 13 13 12 10 10 10 10 11 10 9 8 7 7 12 15 14 13 11 7 7 9 8 7 6 3 6 6 5 4 6 0 3 2 4 4 5 2 5 6 5 5 4 4 5 6 8 10 8 7 8 9 8 6 7 6 2 2 4 4 3 4 2 2 1 2 5 6 8 10 5 1 1 1 2 4 6 2 8 10 12 13 10 7 5 4 4
12 12 13 12 10 10 9 10 10 9 8 8 7 5 8 12 12 12 10 7 8 10 8 7 8 7 7 8 7 5 6 2 2 3 5 4 1 1 5 5 3 3 5 5 6 6 6 7 7 7 8 8 7 6 8 7 2 3 6 4 3 4 3 2 0 1 3 6 6 7 3 2 4 2 5 4 9 9 5 12 13 13 11 8 6 6 5
12 11 12 12 11 9 9 9 9 9 7 7 6 6 6 9 10 9 9 8 8 9 8 10 13 11 8 8 8 7 6 3 2 2 6 6 3 4 5 3 2 3 4 5 5 5 6 6 4 5 5 5 5 5 8 11 5 4 7 5 2 4 4 1 1 0 1 2 4 5 1 4 5 1 6 8 3 7 5 9 12 12 11 10 9 9 12
12 11 11 12 11 10 9 9 9 9 8 6 7 6 5 7 9 8 8 6 7 12 12 11 12 10 7 8 8 5 4 2 1 5 6 5 6 5 2 2 3 3 4 4 2 3 6 3 2 4 3 3 4 1 5 11 8 5 6 4 1 3 4 1 2 1 0 2 3 2 1 3 6 5 5 7 8 4 5 4 8 11 10 11 12 12 16
11 11 11 11 12 10 9 9 9 9 9 7 7 6 4 6 7 7 7 7 8 12 12 10 12 10 7 9 10 6 3 3 4 6 4 3 7 5 0 2 4 2 3 4 3 3 3 4 4 3 0 1 2 0 2 6 6 4 4 3 2 3 3 2 2 2 3 1 3 3 2 1 3 7 7 7 9 5 6 7 6 9 9 10 12 12 15
11 11 11 11 12 11 10 9 10 10 9 8 8 6 3 4 7 5 6 7 6 8 11 10 13 12 8 10 10 7 5 4 3 4 4 4 7 5 2 3 3 3 5 5 4 4 4 4 4 1 1 2 3 2 3 4 5 3 3 2 3 5 4 2 3 3 4 1 1 1 1 2 2 6 8 7 9 9 2 4 2 7 7 8 10 11 13
11 12 12 12 13 12 10 10 10 10 10 8 8 7 4 5 7 6 6 7 7 11 16 15 13 11 8 6 6 6 5 4 3 4 3 4 5 4 4 4 3 4 6 5 4 4 5 5 4 0 1 3 2 1 3 2 4 4 3 2 4 4 4 4 5 4 5 4 1 1 1 2 3 7 9 9 9 10 8 4 1 7 7 8 8 10 12
12 12 12 12 13 13 12 10 9 10 11 9 8 8 7 6 7 5 5 7 8 11 17 17 16 13 8 8 5 9 9 6 4 5 4 3 5 5 4 5 5 4 5 5 4 4 5 5 4 1 2 2 1 1 1 1 2 2 4 5 4 2 2 3 4 4 4 7 3 1 2 1 6 8 10 12 11 7 3 1 2 6 7 10 9 9 10
13 12 13 13 13 13 12 11 10 10 11 10 9 8 6 6 6 5 6 7 7 11 17 18 16 14 11 13 10 6 5 3 2 4 4 3 4 5 2 3 5 4 4 4 4 5 4 2 3 4 2 2 1 1 1 1 2 2 4 4 4 3 2 1 2 3 1 3 3 2 3 2 9 10 8 12 9 3 2 4 5 5 7 10 11 10 9
13 13 14 13 13 14 13 11 10 10 10 10 10 8 7 7 8 6 6 7 9 13 17 15 12 13 13 13 10 5 3 3 5 6 5 1 2 5 4 4 4 3 4 4 3 4 3 1 1 5 2 1 2 2 1 1 1 2 4 4 3 3 3 1 2 3 1 3 4 2 1 5 11 9 4 9 7 3 5 4 6 8 9 8 10 11 10
13 13 15 15 14 14 14 12 10 10 10 10 10 9 6 6 7 7 7 8 9 11 13 10 9 12 14 13 12 9 7 6 6 6 3 1 4 6 3 1 3 1 1 3 2 2 1 1 1 3 1 2 2 1 0 0 3 2 2 4 3 4 3 1 3 4 3 1 4 2 1 6 11 8 6 7 7 7 8 7 7 7 7 7 10 11 10
14 14 15 16 15 14 14 13 11 10 10 10 10 9 6 4 4 7 8 10 11 14 17 16 12 13 16 11 6 6 5 3 3 4 2 2 7 7 4 2 3 3 2 2 2 1 2 1 1 2 1 1 1 0 1 2 1 2 1 2 1 4 3 1 2 4 4 4 4 4 4 7 11 12 11 11 10 10 12 12 8 5 5 7 8 11 11
15 14 15 16 16 15 15 14 12 10 10 10 11 11 9 8 7 7 9 10 12 16 19 18 15 15 16 12 8 7 6 5 3 3 3 3 4 7 6 3 2 5 5 3 1 2 3 3 2 2 2 1 1 1 1 1 1 1 2 0 2 2 1 2 1 5 8 8 8 8 7 9 10 12 13 14 13 13 13 14 10 6 6 7 7 8 11
14 14 15 16 15 16 15 15 13 11 10 10 11 12 12 11 10 9 9 9 11 12 13 14 16 16 15 14 14 12 11 10 8 5 4 5 5 4 4 2 0 4 4 2 2 5 6 4 3 3 1 2 2 2 0 1 1 0 2 1 1 2 1 2 2 5 5 5 7 8 8 8 9 10 12 13 15 14 14 14 12 9 8 10 9 7 8
14 13 14 15 15 16 16 15 15 13 10 10 11 12 13 12 10 8 7 7 9 9 7 9 14 17 15 15 15 15 15 13 10 8 7 8 7 5 2 1 2 1 1 2 3 7 7 5 4 4 2 0 1 1 1 1 1 2 2 2 0 1 1 1 4 6 4 5 8 8 8 8 8 9 11 12 13 14 15 15 14 13 11 11 10 9 9
14 14 15 15 15 15 15 15 15 14 12 10 10 12 14 12 10 9 7 6 10 9 7 8 12 15 15 15 14 14 13 11 9 9 9 8 7 5 2 1 2 2 2 4 5 7 8 6 4 5 3 1 0 1 1 0 1 3 2 1 2 0 3 0 5 7 6 6 7 7 7 7 8 9 10 10 11 12 14 15 15 15 13 11 9 8 7
15 15 15 15 15 15 15 15 15 14 13 11 10 12 14 14 12 11 8 5 7 7 6 8 12 10 10 11 10 10 12 12 11 11 10 8 9 8 6 5 5 5 6 7 7 7 7 6 4 5 2 2 0 3 2 0 1 3 2 3 4 2 3 2 1 4 3 2 3 6 6 5 7 8 8 8 9 10 12 13 14 14 13 11 10 8 6
16 17 16 15 14 14 14 14 14 14 13 11 10 11 14 14 12 12 11 9 8 8 7 9 14 13 8 12 15 14 13 13 12 11 11 10 9 8 7 7 7 7 8 8 7 6 6 5 5 4 1 2 1 3 3 2 2 3 0 3 3 3 4 4 2 4 5 2 4 8 9 6 6 7 7 7 8 9 10 11 12 12 12 11 10 9 8
16 16 16 14 13 13 13 13 13 13 12 11 10 10 12 13 12 11 11 10 10 10 11 12 13 11 8 10 15 16 15 14 14 13 12 9 8 8 8 7 7 8 9 9 7 6 6 6 5 1 2 3 2 2 3 3 2 0 5 9 10 10 11 9 6 7 8 6 4 6 8 8 6 5 6 7 6 7 9 10 10 11 10 9 9 8 7
14 14 13 12 11 11 11 12 12 12 11 9 7 6 7 8 9 10 11 10 9 8 9 9 8 9 10 10 12 15 15 14 14 15 13 10 8 8 8 8 8 9 9 8 7 7 7 7 4 3 3 1 3 3 3 2 1 3 5 9 11 11 11 10 8 7 8 7 5 5 7 8 7 6 6 7 6 7 8 8 8 9 7 7 7 7 6
13 12 12 11 10 9 10 11 13 13 11 9 8 7 4 5 9 12 13 13 11 8 7 8 9 11 12 9 10 13 16 16 15 14 13 11 8 8 8 7 9 10 8 7 8 6 6 6 3 4 3 2 3 4 4 2 2 3 3 5 7 9 10 10 9 8 9 7 5 5 6 6 5 6 6 6 6 6 6 6 7 7 6 5 6 6 5
12 12 12 11 10 9 10 11 12 13 12 12 14 12 6 5 9 12 12 12 12 8 6 7 8 8 7 6 9 12 14 15 15 14 13 12 10 9 8 7 7 8 8 7 6 6 6 6 4 2 3 4 3 3 5 4 2 6 6 5 6 8 9 9 9 8 8 6 5 5 6 5 5 6 7 6 5 5 5 5 5 5 5 4 4 5 5
10 10 11 11 10 9 10 11 12 12 12 14 17 16 9 5 5 8 10 12 12 9 7 7 6 5 5 5 9 13 14 13 14 15 13 11 10 8 9 8 7 6 8 7 5 5 6 6 5 3 4 4 3 4 4 1 3 8 9 7 6 7 8 8 8 7 6 5 3 2 4 6 8 7 6 4 3 3 4 4 4 4 4 4 4 4 4
9 9 10 10 10 10 10 11 11 11 10 11 13 13 9 5 3 5 10 13 10 7 8 7 6 5 4 3 5 11 14 14 14 14 12 11 11 9 8 9 8 7 9 9 7 5 5 6 5 4 5 5 4 5 2 3 6 9 9 7 7 8 8 8 8 7 6 5 4 3 5 7 7 6 4 3 3 3 4 4 4 4 4 4 4 4 4
9 9 9 9 8 9 10 10 9 8 8 7 8 8 8 7 5 6 10 12 9 6 7 9 7 5 4 3 3 9 14 14 13 13 12 11 12 9 7 6 6 6 6 7 8 6 5 6 6 5 4 5 5 4 2 4 6 8 9 9 9 9 9 8 8 7 7 6 5 5 6 6 5 5 5 4 3 3 3 3 4 4 4 4 4 4 3
7 8 8 7 8 9 10 10 9 8 7 5 5 7 8 8 7 7 10 13 11 6 5 7 8 6 6 5 3 7 12 13 12 13 12 10 9 10 9 6 5 4 4 5 7 6 5 6 6 4 4 5 4 3 6 7 6 8 9 9 10 10 8 8 9 8 7 6 6 6 6 6 6 6 5 4 3 2 1 2 2 3 3 3 4 5 4
5 3 2 4 7 7 8 8 8 8 8 7 6 7 7 7 7 6 8 11 13 11 9 7 6 7 9 8 4 7 9 10 10 12 11 9 7 8 10 8 5 5 5 6 7 6 5 6 5 5 5 4 3 6 10 10 8 9 9 9 10 9 8 8 9 9 8 7 7 6 6 6 6 6 4 3 3 2 0 1 1 2 3 4 5 6 6
2 3 5 6 6 6 7 8 8 8 8 9 7 6 6 6 6 6 7 8 9 12 12 9 8 10 13 10 5 9 9 9 10 10 9 7 6 5 8 9 7 6 5 5 5 6 6 5 4 6 5 3 6 10 13 11 10 10 10 10 10 10 9 9 11 11 10 8 8 8 7 7 6 6 5 3 3 2 1 2 2 3 4 5 6 7 7
5 8 8 8 6 6 6 7 8 7 8 8 7 5 6 6 5 5 8 9 8 10 12 10 11 14 14 8 6 10 7 6 7 7 4 3 2 3 6 6 4 4 6 4 3 6 7 4 3 5 4 4 8 12 14 11 10 11 12 11 11 11 11 11 11 11 9 7 7 8 8 6 6 6 5 4 3 3 3 3 4 5 5 6 7 7 8
8 8 8 7 6 4 5 7 8 8 8 9 7 3 4 7 7 5 6 8 7 8 11 11 12 16 16 12 7 9 9 7 5 3 2 2 1 1 4 4 2 4 6 4 4 5 6 4 3 3 3 4 9 13 13 11 10 12 13 12 12 12 12 11 11 9 7 6 6 7 7 5 4 4 3 3 3 3 4 4 4 5 6 7 8 8 9
9 7 7 7 5 3 4 7 9 8 7 6 5 3 3 6 8 7 6 6 5 7 12 13 12 13 16 15 11 8 12 10 4 2 0 2 3 4 3 3 4 5 5 3 4 5 5 4 4 2 3 8 14 16 15 14 13 13 13 13 13 13 12 11 10 9 8 8 8 8 7 6 5 4 2 2 1 2 4 4 5 6 7 7 8 9 10
10 8 7 7 7 7 7 8 7 5 3 2 2 3 3 4 5 7 7 6 5 7 11 14 13 12 14 16 14 10 10 12 9 6 4 3 2 3 3 1 2 5 3 3 4 4 3 4 4 2 6 12 16 17 16 15 14 14 14 14 14 13 13 12 11 10 9 9 9 8 7 6 5 3 2 1 1 3 3 4 5 6 6 7 8 8 9
13 10 7 6 8 9 8 6 5 3 2 1 1 2 3 3 4 5 5 6 8 8 10 13 14 12 13 16 14 9 9 10 10 9 7 3 0 3 4 3 3 3 2 3 3 3 3 4 4 5 10 14 15 15 14 14 15 15 14 15 15 14 13 12 11 10 9 9 9 8 6 5 4 2 1 1 1 3 3 3 5 6 6 7 8 9 9
11 9 6 6 7 8 5 4 3 3 2 3 3 4 5 6 6 5 4 6 8 10 10 13 13 11 11 14 12 8 8 9 9 8 7 8 5 4 5 5 4 2 3 2 3 3 3 3 3 11 17 17 16 16 16 15 16 16 15 14 14 13 12 12 11 11 10 8 7 6 5 4 3 2 1 1 1 2 3 4 5 6 7 8 9 9 10
9 9 7 4 4 5 3 2 3 4 4 3 4 5 6 6 7 7 6 7 8 9 10 13 15 14 12 13 11 8 7 8 8 6 5 6 6 5 4 3 2 2 2 2 3 4 4 2 5 15 20 19 18 19 18 17 17 17 16 15 14 13 12 12 12 10 9 8 6 6 5 4 3 2 2 1 2 3 4 5 6 7 8 9 10 10 11
7 9 8 3 1 4 4 3 3 4 5 5 7 8 8 7 7 8 9 11 12 12 12 12 14 14 14 12 9 8 9 8 6 5 5 5 4 3 2 1 1 3 4 3 3 5 6 4 10 16 19 20 20 20 19 17 17 16 16 15 14 13 13 13 12 10 9 8 6 5 4 3 3 2 2 2 3 4 5 6 7 8 9 10 11 11 11
6 8 8 3 2 5 6 6 5 6 7 9 11 13 12 11 10 8 9 10 10 9 14 18 17 13 13 12 9 7 8 7 5 4 5 3 2 1 1 1 4 5 4 4 5 6 3 8 16 20 20 20 21 20 18 18 17 16 15 15 14 14 13 12 12 11 9 8 6 5 4 3 3 3 2 3 4 5 5 6 8 8 9 10 11 11 12
5 6 6 3 2 5 7 8 9 10 11 11 12 11 10 12 12 10 9 10 8 6 7 16 17 11 8 9 8 5 6 7 5 4 3 2 0 1 2 3 5 5 4 4 6 4 3 12 19 21 20 20 20 19 19 18 17 16 15 15 14 14 13 13 12 11 9 8 6 5 4 4 3 3 3 4 5 6 6 7 8 9 9 10 10 11 11
5 5 5 5 5 6 8 10 10 10 10 11 11 8 8 11 14 10 7 10 10 6 4 4 8 6 3 4 5 3 3 4 4 3 3 3 3 3 4 5 6 5 5 5 3 5 12 17 19 19 19 18 18 17 18 17 16 16 15 14 14 14 13 12 11 10 8 7 5 5 4 4 4 4 4 5 6 7 7 8 8 9 9 9 9 10 11
6 5 7 8 7 5 5 5 6 7 8 10 11 8 7 12 14 9 5 9 12 9 2 2 5 5 3 2 4 3 2 3 3 3 4 5 4 3 4 6 5 4 4 3 7 14 18 19 19 18 17 17 16 15 15 16 16 15 14 13 13 13 13 12 11 10 8 7 6 4 3 3 3 4 4 5 6 7 7 7 7 7 8 8 9 10 10
5 6 8 11 11 7 3 3 5 6 6 7 7 7 10 14 16 12 10 11 12 10 4 1 3 4 4 4 4 3 3 4 4 4 4 4 3 2 3 5 5 3 2 9 16 18 17 17 18 17 16 16 15 15 15 15 15 14 13 13 14 13 12 11 10 9 8 7 6 4 3 3 3 3 4 5 5 6 6 6 6 6 7 8 8 9 9
5 5 7 11 13 11 9 8 8 7 7 10 14 14 14 13 11 13 16 14 11 8 5 2 3 4 4 4 3 3 3 4 5 5 5 4 3 2 2 7 8 4 5 13 16 16 15 16 16 16 16 16 16 16 16 16 15 14 14 14 14 13 12 11 10 9 8 7 5 3 3 3 3 3 4 4 4 5 5 5 5 5 6 6 6 7 8
Wind_Direction
335 346 352 352 350 346 344 345 346 347 341 307 292 296 278 265 261 157 163 193 207 226 252 255 254 253 87 86 239 82 263 258 307 348 319 324 328 284 307 326 315 311 304 302 301 307 339 328 308 286 173 104 67 73 329 314 305 302 307 8 31 359 302 297 300 290 282 292 298 272 232 232 226 212 223 243 247 234 229 229 238 251 228 215 239 223 136
329 338 346 351 350 347 344 343 345 349 346 331 320 314 294 286 283 193 166 211 218 228 253 251 265 296 69 260 253 103 294 290 330 341 338 345 327 317 327 335 311 318 324 302 301 334 324 305 314 310 284 96 79 26 327 314 317 13 22 5 2 350 348 352 294 292 287 276 288 273 215 220 240 222 207 211 231 251 252 233 229 256 268 269 264 192 125
324 329 339 347 349 348 344 342 343 346 345 337 327 320 307 294 282 208 172 216 224 236 264 283 292 299 302 269 257 226 234 238 278 301 302 311 316 315 325 335 295 294 309 295 286 279 259 293 320 299 297 66 60 324 319 301 341 35 20 345 322 307 43 19 260 287 297 266 281 301 242 236 252 231 213 202 214 245 256 241 235 252 282 301 305 129 137
322 321 330 339 347 347 343 341 341 342 342 332 323 319 301 287 280 223 187 191 212 239 259 271 277 282 280 262 259 239 222 169 156 272 265 261 298 301 313 322 286 291 315 304 295 296 279 334 344 316 359 359 312 25 301 290 49 46 348 314 295 286 253 213 229 244 271 275 296 305 295 283 260 226 235 225 205 225 246 240 240 227 229 284 66 122 143
322 317 320 329 343 344 341 341 339 340 340 330 324 310 279 270 288 287 251 192 213 234 236 237 252 300 341 308 176 227 256 166 145 218 257 351 297 282 284 289 288 310 322 317 332 333 322 356 4 351 16 309 290 345 315 296 84 74 279 236 222 278 272 230 247 254 265 273 283 287 285 289 284 253 271 272 224 214 222 228 251 251 214 173 97 127 143
324 319 315 320 334 340 339 338 337 341 336 327 329 309 271 265 278 287 297 248 222 231 242 240 235 239 247 203 153 244 272 274 197 195 196 331 281 276 259 267 288 305 319 325 340 334 323 357 9 339 322 270 300 336 314 301 3 348 267 229 206 285 309 314 286 279 278 274 270 270 270 283 295 307 323 328 319 276 245 225 237 256 251 119 99 114 122
325 321 314 315 324 334 339 335 335 341 331 319 330 307 276 286 293 298 317 293 255 279 316 289 267 251 219 141 332 286 263 261 243 167 285 278 334 342 302 298 313 312 335 344 306 321 333 13 62 341 307 301 315 326 308 305 327 327 301 304 18 317 318 316 293 268 271 281 273 260 257 276 331 355 359 358 351 330 295 248 233 275 312 27 90 100 101
325 322 316 313 315 325 337 335 334 339 335 316 315 298 290 314 318 320 325 310 289 289 279 254 265 275 100 158 264 269 270 278 309 69 260 285 11 330 281 300 325 310 340 343 291 353 11 333 123 220 266 291 320 332 327 300 309 327 308 306 85 164 278 314 297 262 263 289 279 262 270 336 28 23 11 2 355 343 325 303 315 356 352 14 82 98 97
322 322 318 312 310 317 330 334 334 338 341 326 305 308 330 334 322 313 309 300 294 291 273 251 252 222 170 220 223 215 243 264 338 41 248 306 316 300 306 334 332 287 299 293 299 6 17 282 238 224 250 284 273 231 223 261 289 327 306 300 315 253 274 337 304 277 270 281 278 279 310 32 44 34 18 4 358 347 337 346 10 16 3 15 61 86 84
318 319 318 312 306 310 320 329 333 335 341 331 307 326 352 341 327 320 305 285 283 282 263 250 246 233 250 244 180 197 235 212 68 340 261 279 276 287 329 336 317 282 271 283 339 354 320 303 304 282 288 290 257 241 235 246 273 322 308 306 298 266 255 300 300 289 282 283 290 295 287 139 58 34 23 15 15 343 326 358 21 18 10 18 56 91 94
315 315 315 312 305 303 311 322 329 329 338 341 327 344 358 348 337 329 314 287 265 256 246 241 230 231 281 258 184 210 267 48 102 233 266 269 239 244 305 300 290 305 352 17 349 323 294 291 297 288 274 264 258 269 273 260 252 304 288 283 297 301 296 286 277 265 294 317 309 291 284 211 207 67 80 109 109 28 346 15 22 14 21 32 50 97 119
311 311 311 311 303 298 301 309 320 326 330 338 340 340 345 344 339 328 312 287 259 248 245 251 240 224 237 239 216 228 265 283 146 219 273 309 35 269 282 274 263 316 3 347 309 298 275 259 263 268 264 265 268 266 273 274 243 259 283 293 328 320 279 250 266 200 308 332 296 261 279 292 229 168 41 56 137 139 58 38 31 12 14 28 38 56 52
306 305 306 308 301 294 293 295 306 316 314 320 328 322 325 340 344 332 314 300 276 262 264 269 258 238 221 238 241 230 240 273 13 304 285 300 308 270 262 260 297 345 342 311 298 296 274 246 231 258 266 268 265 266 296 302 289 265 289 308 353 306 284 257 66 229 265 308 267 238 258 314 287 20 23 2 53 121 89 41 32 16 7 21 38 41 27
301 300 300 302 299 292 286 284 291 302 303 305 312 317 340 347 338 332 326 315 290 279 276 277 272 251 224 247 258 232 212 227 291 279 270 264 261 255 226 242 288 322 314 294 287 272 272 270 229 236 247 252 245 261 323 306 286 251 276 301 310 286 294 260 177 191 279 272 283 303 333 330 333 348 0 344 346 41 104 73 30 23 23 37 47 42 36
298 296 294 296 296 290 284 278 278 288 295 299 298 305 346 339 316 320 325 313 305 291 271 266 286 284 246 238 245 235 216 201 211 237 238 250 263 261 167 278 274 285 279 272 263 249 260 276 257 239 72 273 252 25 318 294 279 229 221 271 257 224 244 268 223 146 109 187 272 310 315 313 329 324 329 330 325 346 109 117 45 23 33 52 60 49 35
294 292 289 289 291 288 283 276 271 275 284 291 292 293 326 315 294 306 314 296 291 286 270 277 304 305 272 239 235 235 246 241 228 224 204 229 256 243 220 257 248 228 244 247 253 261 266 267 266 334 33 209 195 224 275 300 299 257 188 192 226 210 202 231 237 186 133 121 285 312 295 272 281 306 322 331 322 321 300 168 61 34 43 52 65 68 48
291 287 284 284 285 285 284 277 269 268 273 279 284 278 272 285 290 304 314 294 280 278 281 291 301 290 269 247 225 225 243 251 271 268 232 227 250 218 179 211 224 232 247 250 250 252 255 256 251 186 211 211 180 241 273 274 268 283 329 295 241 214 201 212 229 210 154 137 149 142 179 245 294 309 320 333 331 318 292 235 76 49 65 67 70 85 76
290 283 279 278 279 281 282 278 269 265 265 268 277 277 271 278 287 295 302 298 291 278 275 277 270 263 295 337 294 232 220 205 216 253 241 206 233 229 186 191 209 218 235 255 262 249 252 268 280 275 168 161 129 246 283 296 245 286 329 303 274 252 224 227 247 237 162 141 146 150 153 254 310 308 321 334 324 303 288 230 21 27 62 84 87 91 87
290 281 275 272 272 274 277 277 271 264 261 262 267 270 270 273 280 296 300 294 291 282 281 285 277 269 296 325 315 268 219 194 218 249 239 190 214 237 222 212 230 220 211 235 260 260 260 292 310 294 252 173 207 209 164 344 327 340 327 303 308 333 323 272 270 274 226 133 119 119 130 19 325 308 329 349 330 267 96 27 2 29 69 90 98 102 96
291 282 274 268 267 268 271 273 271 263 259 260 260 260 262 265 273 288 292 294 301 290 281 287 297 289 278 271 268 273 259 228 222 231 241 269 244 249 240 219 229 229 221 233 257 271 276 37 309 289 305 44 315 294 173 158 105 1 325 308 326 346 344 358 0 341 313 132 101 92 117 10 347 326 347 14 10 100 108 57 35 58 79 93 99 106 106
291 281 273 268 264 264 267 268 267 263 258 257 258 258 256 263 282 290 280 280 295 284 269 279 317 315 294 266 246 253 261 250 240 240 239 194 225 252 278 241 219 222 238 262 302 314 288 121 216 258 226 177 236 264 327 178 136 115 324 310 327 348 354 44 40 7 335 87 80 81 128 33 26 33 66 61 60 84 93 86 68 61 74 90 91 97 103
293 282 273 269 264 261 263 263 262 260 257 253 254 252 240 224 265 281 272 269 274 269 268 280 297 299 296 290 261 241 243 251 270 280 288 209 211 230 276 292 259 285 331 333 334 288 255 249 269 287 298 274 274 111 242 259 153 125 230 267 327 356 356 17 52 45 55 89 111 132 116 70 59 65 70 71 77 82 81 83 81 68 73 92 102 106 107
291 282 273 270 267 263 260 259 257 255 253 253 252 246 234 219 228 259 277 280 281 280 278 280 279 275 276 270 248 227 217 222 243 259 295 306 244 225 226 217 246 278 292 317 352 245 262 276 280 308 338 331 294 282 240 248 352 351 327 340 84 63 21 241 142 98 98 106 125 132 107 86 80 76 69 65 68 76 85 89 87 75 80 102 117 112 112
286 279 271 269 269 266 261 257 254 250 248 251 251 248 242 234 239 269 291 288 281 283 283 269 254 252 255 246 232 224 223 232 239 236 255 289 294 259 231 186 290 269 266 303 305 271 280 292 272 262 256 211 237 274 41 119 167 296 325 322 85 96 160 234 122 114 118 115 119 120 110 102 100 90 82 75 69 72 85 94 92 83 87 109 114 99 102
277 273 268 267 267 266 263 258 252 247 245 249 250 250 246 238 239 255 272 284 285 285 291 272 248 241 245 244 229 218 219 225 224 219 230 246 260 274 297 351 337 309 19 358 275 254 262 278 273 272 280 208 264 269 215 212 194 174 221 270 60 76 267 222 104 99 107 105 104 106 102 95 90 84 81 78 73 73 80 91 97 89 82 96 108 104 104
268 265 264 265 265 264 262 259 252 245 244 248 251 251 245 237 236 236 238 279 297 282 269 279 267 244 233 233 224 213 212 213 208 212 225 232 238 253 290 315 263 239 260 275 256 247 260 273 278 282 284 102 60 262 224 192 205 194 193 142 122 259 294 188 116 112 117 120 120 127 127 107 91 84 80 77 77 76 76 83 91 89 82 85 90 90 94
262 260 259 260 261 261 259 256 251 244 242 248 252 251 244 235 233 232 225 250 291 273 238 263 282 268 231 220 221 215 213 216 215 217 223 230 239 244 236 224 227 231 241 247 242 243 259 268 267 273 282 91 4 272 252 93 283 248 202 138 160 215 319 352 126 138 133 118 96 105 119 110 87 83 82 79 80 81 77 76 80 83 86 89 85 78 76
262 262 260 258 259 260 257 253 248 239 238 248 255 249 241 234 229 228 223 225 252 275 283 293 303 305 274 232 227 221 214 215 218 221 221 217 222 234 227 210 215 226 228 231 236 238 244 254 259 268 313 58 286 246 208 173 269 283 63 98 104 84 58 46 71 111 111 97 78 94 108 110 91 80 77 73 75 82 83 80 79 80 83 87 89 89 83
266 268 270 267 265 264 258 251 245 236 236 251 261 249 237 233 230 230 229 230 243 270 292 300 295 290 272 242 228 217 211 212 216 223 226 210 204 225 226 202 207 225 222 220 236 247 246 253 261 296 41 20 336 267 215 202 215 173 82 84 83 81 84 84 86 104 121 131 118 110 121 127 120 103 86 76 76 83 84 81 79 78 80 85 88 91 92
266 270 274 274 272 268 258 245 234 228 234 247 251 238 228 225 225 227 229 229 236 258 284 294 285 275 274 257 224 208 209 213 215 221 223 212 207 222 217 195 207 229 228 219 228 243 251 248 231 119 90 357 301 286 267 243 110 73 73 85 93 96 94 92 92 107 123 126 117 118 130 134 134 126 102 83 79 84 85 83 80 75 79 92 96 92 93
264 267 269 269 269 265 252 236 222 221 229 226 209 201 196 194 205 215 220 220 223 237 264 273 276 286 286 261 218 211 214 210 211 221 222 211 208 216 209 199 208 218 225 228 224 230 252 250 211 127 122 197 254 280 278 268 119 122 111 96 104 109 103 99 103 113 122 125 125 135 145 145 143 136 116 91 78 80 84 87 85 76 71 87 103 104 99
265 268 267 266 265 256 243 230 219 219 223 215 202 194 177 173 203 216 220 217 216 223 250 261 263 273 272 233 214 225 222 206 207 223 224 209 204 207 204 208 213 211 223 245 238 223 236 242 227 174 150 168 198 256 268 265 160 140 139 121 113 118 115 113 120 127 131 135 143 163 171 156 131 125 122 103 78 74 77 74 71 70 70 80 97 104 98
268 274 273 270 265 250 233 223 220 224 231 225 212 199 181 165 194 210 210 207 208 218 243 259 259 257 258 236 214 215 216 208 208 218 216 201 198 202 201 209 220 210 209 226 235 220 219 224 220 182 138 146 201 252 263 272 121 137 146 145 133 130 128 127 129 129 134 145 157 173 156 130 114 116 127 118 85 70 69 57 47 53 66 71 77 85 84
276 280 276 268 256 239 220 212 218 228 235 233 223 212 208 209 197 193 199 200 204 226 240 247 260 255 250 259 209 199 205 211 210 210 204 187 187 201 205 206 215 210 199 207 222 223 213 213 212 189 151 161 220 248 236 120 131 148 159 163 156 148 143 140 142 140 138 143 139 116 116 121 120 123 129 125 108 92 79 61 51 52 53 49 54 62 60
278 276 269 259 243 224 207 202 212 219 219 222 226 225 231 233 217 198 197 195 203 233 230 225 243 250 229 244 227 193 200 211 212 207 200 184 184 203 217 207 207 203 189 204 227 231 213 210 220 221 187 181 210 231 176 133 155 172 174 171 170 168 161 155 156 152 144 143 142 134 136 145 150 147 140 136 123 103 79 57 45 40 35 27 28 29 17
276 275 264 241 217 203 197 198 207 209 202 208 221 224 226 227 217 205 200 200 210 244 249 229 235 235 223 235 221 181 197 212 208 199 198 188 184 200 209 208 219 216 190 208 234 234 200 188 200 216 210 199 200 166 131 140 177 199 189 176 176 180 177 168 162 157 154 157 155 148 153 163 164 157 153 151 141 119 77 48 31 18 9 2 351 342 332
283 284 253 194 178 182 193 203 209 204 190 193 213 219 213 209 208 209 213 215 222 237 255 263 255 236 236 242 206 162 188 207 197 193 201 196 183 199 208 206 208 215 209 218 235 231 190 167 183 224 231 213 174 141 139 154 185 197 184 177 180 180 175 169 165 163 164 167 166 167 177 182 172 162 166 174 170 165 220 350 1 344 330 325 324 322 318
238 160 140 146 158 179 196 201 205 202 189 190 206 205 184 188 210 217 215 220 226 227 235 251 258 251 257 259 199 167 187 206 196 195 202 185 163 199 227 213 190 193 210 219 238 238 210 173 198 240 234 157 143 156 160 168 183 181 174 177 181 177 172 170 170 171 175 179 182 184 186 190 186 179 180 189 193 191 235 278 294 302 305 308 312 311 308
171 154 153 161 173 191 203 203 202 198 184 181 191 186 173 188 218 216 201 203 213 216 220 232 239 242 254 260 187 170 191 225 207 191 200 204 176 230 243 226 190 203 223 214 213 235 230 204 214 238 223 143 148 164 170 175 179 174 173 176 177 173 171 170 173 179 183 183 184 184 184 189 196 192 191 198 212 230 258 275 287 296 299 301 305 304 300
166 161 169 177 177 190 212 204 190 180 174 173 177 184 195 203 209 208 197 199 206 211 213 221 229 232 243 258 239 187 188 215 217 158 143 236 224 224 253 251 223 226 235 214 185 216 233 228 214 224 215 183 173 169 172 179 176 166 166 171 171 170 170 170 172 177 174 159 155 164 168 168 169 173 180 190 212 251 279 290 298 304 302 300 299 297 293
167 165 181 188 174 158 181 178 167 167 178 180 176 188 216 209 210 216 213 204 210 213 209 211 219 222 226 241 247 207 181 186 188 98 114 211 174 163 214 249 240 237 238 198 178 208 237 239 223 189 166 181 178 170 170 176 171 162 163 166 165 166 167 166 166 166 160 150 147 150 150 151 152 156 160 167 206 263 284 293 299 301 300 298 297 292 289
178 176 183 185 168 153 160 165 162 165 190 200 181 204 223 214 213 221 219 214 225 220 202 203 215 219 213 219 227 210 172 162 158 163 195 230 217 199 202 214 259 253 231 157 168 201 225 235 236 178 154 169 170 166 167 170 163 159 161 162 162 165 165 161 161 161 157 153 150 148 147 148 149 154 168 189 252 281 288 295 299 299 300 299 297 293 289
186 178 167 168 169 168 173 179 172 166 184 196 162 206 220 209 209 221 217 215 227 225 201 195 207 212 205 207 212 195 161 164 178 186 182 165 201 251 225 198 219 235 179 142 182 206 207 232 233 163 155 162 162 160 165 165 158 156 161 162 162 165 165 161 160 157 151 150 150 149 150 151 147 153 188 235 282 293 292 297 302 304 304 301 297 295 293
183 175 167 174 179 174 173 184 184 184 203 207 196 206 211 204 205 216 208 196 210 215 202 194 200 203 195 195 194 173 154 177 201 203 178 162 171 227 234 213 203 173 131 159 226 220 219 249 192 154 155 160 160 160 164 162 155 156 160 162 163 165 165 164 162 155 151 153 153 149 152 157 153 155 185 220 255 277 292 303 306 308 307 303 300 298 295
182 184 182 185 182 172 167 179 195 204 219 219 210 219 224 212 205 214 216 207 210 214 205 198 200 199 192 189 189 184 178 186 196 197 187 183 193 213 220 209 179 157 174 218 234 225 233 235 149 149 156 159 158 158 159 158 156 158 159 160 164 166 164 165 165 160 155 154 153 152 159 163 161 172 202 226 256 283 296 302 304 307 309 306 303 299 296
191 193 188 183 197 199 199 196 190 203 218 218 213 222 233 234 228 225 223 218 213 208 206 210 213 205 191 184 186 192 192 190 187 187 194 202 209 213 204 147 174 209 218 211 209 230 236 196 152 151 154 153 152 154 155 155 156 159 158 159 163 165 163 164 165 162 158 156 155 160 170 176 185 204 226 249 274 288 297 301 304 307 307 304 301 300 298
204 205 199 199 213 211 213 216 217 220 225 225 224 227 231 236 240 238 231 228 225 206 196 204 214 209 190 184 191 196 189 186 189 190 186 192 230 269 283 221 217 224 222 205 216 243 232 143 143 149 151 149 150 154 155 154 156 159 161 162 163 163 164 164 163 162 163 163 165 178 201 214 218 227 252 276 287 296 302 302 301 299 298 298 299 300 297
218 214 209 214 210 206 213 224 231 233 233 232 234 238 237 236 238 237 226 230 258 283 221 202 203 200 187 186 196 198 179 179 185 176 151 138 251 246 220 228 230 229 225 222 232 244 128 125 136 145 148 149 152 154 153 154 157 161 162 164 164 164 165 165 165 167 169 167 171 191 216 228 240 256 271 280 290 298 300 297 297 297 298 299 301 301 300
227 228 226 233 237 233 230 231 235 240 240 236 238 248 254 244 238 230 205 201 220 261 300 191 177 173 173 186 189 184 177 181 178 160 161 187 202 198 210 225 225 221 233 244 221 134 122 128 136 141 144 149 154 155 152 153 157 161 163 165 166 166 166 167 167 168 169 168 175 196 213 224 249 273 283 287 290 293 292 292 296 299 300 300 301 301 300
237 253 243 236 241 252 248 238 239 240 236 232 229 228 240 247 241 226 171 169 187 196 194 112 152 158 153 163 170 174 193 201 196 191 201 208 211 219 233 233 227 227 236 196 135 126 128 134 139 143 146 151 154 153 151 153 157 159 162 164 165 164 165 168 168 167 166 166 173 188 210 235 262 280 289 290 289 289 291 295 297 300 304 307 308 306 305
238 256 247 241 246 258 275 281 270 259 255 261 257 232 225 237 235 210 167 159 167 167 151 150 192 175 162 171 182 177 172 185 198 208 209 207 202 206 223 230 235 238 135 117 120 127 134 137 139 143 148 150 151 152 153 155 156 158 159 162 163 163 164 167 167 166 167 172 179 192 227 260 273 281 286 287 288 289 293 298 301 306 312 315 315 313 312
228 245 250 249 253 259 263 269 281 293 288 274 264 249 237 231 210 174 159 159 158 151 149 195 227 205 181 175 170 144 146 177 202 212 211 205 180 155 236 275 283 274 135 125 128 135 140 139 141 148 152 151 150 152 152 151 154 156 158 160 161 161 162 165 166 168 173 179 183 196 231 257 272 282 284 286 290 294 296 300 311 318 319 322 327 328 325